Location: Ciserano
(45.5833°N, 9.6000°E)
Time: 12:51:22
(UTC+00:00)

SL-4 R/B - Pass Details

Date: 29 November 2020
Orbit: 428 x 664 km, 51.6° (Epoch: 25 January)

Event Time Altitude Azimuth Distance (km) Brightness Sun altitude
Exits shadow 05:50:36 11° 303° (WNW) 1,667 3.8 -8.5°
Maximum altitude 05:54:04 36° 11° (N) 777 2.7 -7.9°
Drops below altitude 10° 05:57:26 10° 79° (E) 1,608 5.4 -7.4°
Sets 05:59:37 0° 89° (E) 2,451 6.7 -7.0°
